Weather Service Report


058 
ASUS41 KBOX 292210
RWRBOX

REGIONAL WEATHER ROUNDUP
NATIONAL WEATHER SERVICE TAUNTON MA
600 PM EDT WED MAR 29 2017

NOTE:  "FAIR" INDICATES FEW OR NO CLOUDS BELOW 12,000 FEET WITH NO 
SIGNIFICANT WEATHER AND/OR OBSTRUCTIONS TO VISIBILITY.

MAZALL-292300-
EASTERN MASSACHUSETTS
  
CITY           SKY/WX    TMP DP  RH WIND       PRES   REMARKS
BOSTON         CLOUDY    43  24  47 NW21G28   30.07R                  
BEVERLY        PTSUNNY   44  25  47 NW17G25   30.05R                  
LAWRENCE       CLOUDY    41  25  53 N12G17    30.08R                  
BEDFORD        CLOUDY    42  21  43 NW21G32   30.07R                  
BLUE HILL        N/A     39  23  52 NW18G33   30.03R WCI  30          
NORWOOD        CLOUDY    44  24  45 NW13G21   30.08R                  
MARSHFIELD     CLOUDY    45  27  49 NW13G30   30.05R                  
PLYMOUTH       CLOUDY    43  26  51 N14G26    30.04R                  
TAUNTON        CLOUDY    45  26  47 NW13G28   30.05R                  
NEW BEDFORD    CLOUDY    46  29  51 N13G22    30.03R                  
$$

MAZALL-292300-
CAPE COD AND THE ISLANDS
  
CITY           SKY/WX    TMP DP  RH WIND       PRES   REMARKS
FALMOUTH       CLOUDY    43  34  70 MISG      30.03R                  
HYANNIS        CLOUDY    41  35  79 N6        30.01R                  
CHATHAM        CLOUDY    42  36  79 VRB5      30.03R                  
PROVINCETOWN   CLOUDY    40  37  89 NW7       30.04R                  
NANTUCKET      CLOUDY    42  34  73 N10       30.01R                  
MARTHAS VNYRD  CLOUDY    44  34  67 NE8       30.02R                  
$$
 
MAZALL-292300-
CENTRAL AND WESTERN MASSACHUSETTS
  
CITY           SKY/WX    TMP DP  RH WIND       PRES   REMARKS
WORCESTER      CLOUDY    39  23  52 NW15G26   30.06R WCI  31          
FITCHBURG      CLOUDY    42  25  50 NW13G25   30.09R                  
ORANGE         CLOUDY    39  25  57 NW13      30.10S WCI  31          
SPRINGFIELD    CLOUDY    44  24  45 NE15      30.10R                  
WESTFIELD      CLOUDY    45  25  45 N16G24    30.10R                  
NORTH ADAMS    MOSUNNY   42  24  49 NW9G21    30.12R                  
PITTSFIELD     PTSUNNY   39  23  52 N8G24     30.09R                  
$$
 
RIZALL-292300-
RHODE ISLAND
  
CITY           SKY/WX    TMP DP  RH WIND       PRES   REMARKS
PROVIDENCE     PTSUNNY   47  25  42 N22G33    30.06R                  
NEWPORT        PTSUNNY   46  29  51 N13G28    30.03R                  
BLOCK ISLAND   CLOUDY    44  38  79 SW7       30.04R                  
SMITHFIELD     CLOUDY    43  26  51 NW16G25   30.07R                  
WESTERLY       CLOUDY    53  29  39 N14G21    30.04R                  
$$
 
CTZALL-292300-
CONNECTICUT
  
CITY           SKY/WX    TMP DP  RH WIND       PRES   REMARKS
BRADLEY INTL   MOSUNNY   47  26  44 N18G25    30.10R                  
HARTFORD       CLOUDY    48  28  46 N12G28    30.10R                  
BRIDGEPORT     SUNNY     53  25  33 NW17G29   30.08R                  
DANBURY        SUNNY     49  26  41 NW12G20   30.10R                  
GROTON         MOSUNNY   51  27  39 NW17G25   30.04R                  
NEW HAVEN      MOSUNNY   51  28  41 N14G21    30.07R                  
CHESTER        NOT AVBL                                               
MERIDEN        MOSUNNY   50  27  40 NW15G25   30.09R                  
WILLIMANTIC    CLOUDY    47  28  47 N15G25    30.08R                  
OXFORD         MOSUNNY   46  23  39 N14G23    30.09R                  
$$

MEZ002-015-021-024-NHZ003-005-008-011-012-014-VTZ005-008-292300-
NORTHERN NEW ENGLAND
  
CITY           SKY/WX    TMP DP  RH WIND       PRES   REMARKS
PORTLAND ME    PTSUNNY   43  24  47 N17G26    30.03R                  
BANGOR ME      MOCLDY    38  29  70 N10       29.99R WCI  31          
CONCORD NH     CLOUDY    40  25  55 NW14G22   30.08R                  
MANCHESTER NH  PTSUNNY   41  21  44 NW15G21   30.07R                  
NASHUA NH      PTSUNNY   42  23  46 NW17G23   30.09R                  
PORTSMOUTH NH  PTSUNNY   42  24  50 NW16      30.04R                  
JAFFREY NH     CLOUDY    38  21  50 N9G18     30.08R WCI  31          
KEENE NH       CLOUDY    40  24  53 N13G18    30.11R                  
BURLINGTON VT  CLOUDY    39  26  59 NE5       30.18R                  
MT. WASHINGTON SNOWSHWR  12  12 100 NW53G67     N/A  VSB 0   WCI -14  
$$

NYZ052-076-292300-
EASTERN NEW YORK
  
CITY           SKY/WX    TMP DP  RH WIND       PRES   REMARKS
ALBANY         PTSUNNY   46  22  38 N21G26    30.16R                  
NEW YORK CITY  SUNNY     56  27  32 NW17      30.07R                  
$$
 
ANZALL-292300-
MARINE OBSERVATIONS
  
STATION/POSITION TIME  TEMP    WIND        PRES    VSBY  WAVE
                       AIR SEA DIR/SP/G                  HT/PER
                 (UTC) (F)     (DEG/KT/KT) (MB)    (MI)  (FT/S)
BOSTON BUOY      2050   43 40  310/ 17/ 21 1015.8          4/ 7
BUZZARDS BAY     2100   42      70/  4/  5 1016.7R
NANTUCKET SOUND  2150      41              1016.4R         2/ 3
MASS BAY-STELLWA 2104   43 40  330/ 16/ 23 1015.6R         4/ 7
ISLE OF SHOALS   2200   41     330/ 13/ 14 1017.3R
S OF BLOCK IS    2155      40                N/A           3/ 9
$$

......................KEY.........................
  SKY/WX - SKY CONDITION/PRESENT WEATHER
  TMP    - TEMPERATURE IN FAHRENHEIT
  DWPT   - DEWPOINT IN FAHRENHEIT
  RH     - RELATIVE HUMIDITY IN PERCENT
  WIND   - DIRECTION AND SPEED IN MPH
  PRES   - MEAN SEA LEVEL PRESSURE IN INCHES OF HG
  WCI    - WIND CHILL INDEX
  VSB    - VISIBILITY IN MILES
  HX     - HEAT INDEX
  TC     - TEMPERATURE IN CELSIUS
  VRB    - VARIABLE WIND DIRECTION
  N/A    - NOT AVAILABLE
  

Return to Home page


Western Regional Climate Center, wrcc@dri.edu